Location: ????????
(55.3155°N, 39.2900°E)
Time: 19:02:19
(UTC+00:00)

ACS3 Solar Sail - Pass Details

Date: 15 November 2025
Orbit: 889 x 1003 km, 97.3° (Epoch: 06 December)

Event Time Altitude Azimuth Distance (km) Brightness Sun altitude
Rises 23:05:35 0° 22° (NNE) 3,559 5.4 -47.1°
Reaches altitude 10° 23:08:58 10° 42° (NE) 2,633 4.6 -46.8°
Enters shadow 23:10:39 14° 58° (ENE) 2,331 4.2 -46.6°
